Location: Cran-Gévrier
(45.9039°N, 6.1012°E)
Time: 10:28:06
(UTC+00:00)

ATLAS 5 CENTAUR R/B - Pass Details

Date: 09 February 2023
Orbit: 460 x 1178 km, 63.3° (Epoch: 24 March)

Event Time Altitude Azimuth Distance (km) Brightness Sun altitude
Rises 19:51:28 0° 325° (NW) 3,013 5.7 -31.4°
Reaches altitude 10° 19:53:46 10° 334° (NNW) 2,203 4.8 -31.8°
Enters shadow 19:55:39 22° 348° (NNW) 1,632 3.9 -32.1°
